Time,TemperatureF,DewpointF,PressureIn,WindDirection,WindDirectionDegrees,WindSpeedMPH,WindSpeedGustMPH,Humidity,HourlyPrecipIn,Conditions,Clouds,dailyrainin,SoftwareType,DateUTC
2013-01-09 00:02:00,36.0,23.0,30.04,North,2,3.0,6.0,60,0.00,,,0.00,,2013-01-09 06:02:00,
2013-01-09 00:12:00,36.0,23.0,30.04,North,2,3.0,6.0,60,0.00,,,0.00,,2013-01-09 06:12:00,
2013-01-09 00:22:00,36.0,23.0,30.04,North,2,3.0,6.0,60,0.00,,,0.00,,2013-01-09 06:22:00,
2013-01-09 01:52:00,35.0,24.0,30.10,WNW,293,0.0,5.0,63,0.00,,,0.00,,2013-01-09 07:52:00,
2013-01-09 02:02:00,35.0,24.0,30.10,WNW,293,0.0,5.0,63,0.00,,,0.00,,2013-01-09 08:02:00,
2013-01-09 02:12:00,35.0,24.0,30.10,WNW,293,0.0,5.0,63,0.00,,,0.00,,2013-01-09 08:12:00,
2013-01-09 02:22:00,35.0,24.0,30.10,WNW,293,0.0,5.0,63,0.00,,,0.00,,2013-01-09 08:22:00,
2013-01-09 03:53:00,36.0,24.0,30.16,WNW,286,3.0,9.0,61,0.00,,,0.00,,2013-01-09 09:53:00,
2013-01-09 04:02:00,36.0,24.0,30.16,WNW,286,3.0,9.0,61,0.00,,,0.00,,2013-01-09 10:02:00,
2013-01-09 04:12:00,36.0,24.0,30.16,WNW,286,3.0,9.0,61,0.00,,,0.00,,2013-01-09 10:12:00,
2013-01-09 04:22:00,36.0,24.0,30.16,WNW,286,3.0,9.0,61,0.00,,,0.00,,2013-01-09 10:22:00,
2013-01-09 05:53:00,34.0,23.0,30.22,North,9,4.0,5.0,65,0.00,,,0.00,,2013-01-09 11:53:00,
2013-01-09 06:03:00,34.0,23.0,30.22,North,9,4.0,5.0,65,0.00,,,0.00,,2013-01-09 12:03:00,
2013-01-09 06:12:00,34.0,23.0,30.22,North,9,4.0,5.0,65,0.00,,,0.00,,2013-01-09 12:12:00,
2013-01-09 06:23:00,34.0,23.0,30.22,North,9,4.0,5.0,65,0.00,,,0.00,,2013-01-09 12:23:00,
2013-01-09 07:53:00,30.0,23.0,30.22,NNE,21,3.0,4.0,75,0.00,,,0.00,,2013-01-09 13:53:00,
2013-01-09 08:03:00,30.0,23.0,30.22,NNE,21,3.0,4.0,75,0.00,,,0.00,,2013-01-09 14:03:00,
2013-01-09 08:12:00,30.0,23.0,30.22,NNE,21,3.0,4.0,75,0.00,,,0.00,,2013-01-09 14:12:00,
2013-01-09 08:22:00,30.0,23.0,30.22,NNE,21,3.0,4.0,75,0.00,,,0.00,,2013-01-09 14:22:00,
2013-01-09 09:53:00,34.0,26.0,30.31,West,277,6.0,6.0,73,0.00,,,0.00,,2013-01-09 15:53:00,
2013-01-09 10:03:00,34.0,26.0,30.31,West,277,6.0,6.0,73,0.00,,,0.00,,2013-01-09 16:03:00,
2013-01-09 10:12:00,34.0,26.0,30.31,West,277,6.0,6.0,73,0.00,,,0.00,,2013-01-09 16:12:00,
2013-01-09 10:22:00,34.0,26.0,30.31,West,277,6.0,6.0,73,0.00,,,0.00,,2013-01-09 16:22:00,
2013-01-09 21:53:00,31.0,20.0,30.37,SE,131,0.0,0.0,63,0.00,,,0.00,,2013-01-10 03:53:00,
2013-01-09 22:02:00,31.0,20.0,30.37,SE,131,0.0,0.0,63,0.00,,,0.00,,2013-01-10 04:02:00,
2013-01-09 22:12:00,31.0,20.0,30.37,SE,131,0.0,0.0,63,0.00,,,0.00,,2013-01-10 04:12:00,
2013-01-09 22:22:00,31.0,20.0,30.37,SE,131,0.0,0.0,63,0.00,,,0.00,,2013-01-10 04:22:00,
2013-01-09 23:53:00,33.0,24.0,30.37,ESE,109,2.0,3.0,70,0.00,,,0.00,,2013-01-10 05:53:00,